Voltar ao catálogo

THOR ABLESTAR DEB

AtivoLEO
NORAD 134·DEBRIS·🇺🇸 United States

Lançado Jun 29, 1961 de Cape Canaveral Space Force Station

Loading…

Próximas Passagens (próximas 24 horas)

TLE

AtualizadoSource: Space-Track

Época: Sep 14, 2026, 05:27 UTC

1 00134U 61015U   26257.22750629  .00000048  00000-0  86633-4 0  9998
2 00134  66.8800 187.5184 0076375 130.6511 230.1246 13.97786336318145

Acompanhe THOR ABLESTAR DEB em tempo real com AllMySat

Download on the App Store